Content
SEND FEEDBACK

Daily
Averages
Monthly
Summary
United States of America

BOSTON, MASSACHUSETTS


Home > North America > United States > Massachusetts
Elevation: 4 feet     Latitude: 42 22N     Longitude: 071 02W

WEATHER
 
SELECT A DAY
Number of Records: 207,052;   Date Range: 1/1/95 - 12/20/14
 
SHARE

PRINT THIS DATA

[ ← Previous Day ]
WEATHER ALMANAC - JANUARY 4, 2013
[ Next Day → ]
[ °C ]   °F
Weather ElementAverageHighLow
Temperature31.6 °F37 °F (12:54 pm)23 °F (1:54 am)
Dewpoint18.9 °F21.9 °F (4:54 pm)12 °F (1:54 am)
Humidity59.8 %69 % (5:54 am)50 % (11:54 am)
Barometer29.89 in29.97 in (1:54 am)29.81 in (1:54 pm)
Wind Speed13.1 mph18.4 mph (11:54 am)
Wind Gust31.1 mph (11:54 am)
Weather ElementAverage
Visibility10 mi
Wind DirectionWSW (245.2 °)

Weather ElementTotal
Precipitation---
Heating Degree Days35 (Base 65)
Averaged from 23 records on January 4, 2013
WEATHER CONDITIONS BREAKOUT
WIND DIRECTION BREAKOUT
WEATHER BY HOUR - JANUARY 4, 2013
[ °C ]   °F
Local TimeTemperatureDewpointHumidityBarometerVisibilityWind DirectionWind SpeedGust SpeedPrecipitationEventsConditions
1:54 AM23.0 °F12.0 °F63 %29.97 in10.0 miWSW (250°)9.2 mphScattered Clouds
2:54 AM24.1 °F12.9 °F62 %29.96 in10.0 miWSW (250°)8.1 mphScattered Clouds
3:54 AM25.0 °F14.0 °F63 %29.95 in10.0 miWest (260°)9.2 mphScattered Clouds
4:54 AM23.0 °F14.0 °F68 %29.95 in10.0 miSW (230°)9.2 mphScattered Clouds
5:54 AM25.0 °F16.0 °F69 %29.95 in10.0 miSW (230°)6.9 mphScattered Clouds
6:54 AM27.0 °F17.1 °F66 %29.95 in10.0 miWest (260°)12.7 mph23.0 mphScattered Clouds
7:54 AM28.9 °F19.0 °F67 %29.96 in10.0 miWest (260°)17.3 mph24.2 mphMostly Cloudy
8:54 AM30.0 °F19.0 °F64 %29.96 in10.0 miWest (260°)13.8 mph21.9 mphMostly Cloudy
9:54 AM33.1 °F21.0 °F61 %29.95 in10.0 miWest (260°)13.8 mphMostly Cloudy
10:54 AM35.1 °F19.9 °F54 %29.92 in10.0 miWest (270°)15.0 mph25.3 mphMostly Cloudy
11:54 AM36.0 °F19.0 °F50 %29.87 in10.0 miWest (270°)18.4 mph31.1 mphMostly Cloudy
12:54 PM37.0 °F19.9 °F50 %29.84 in10.0 miWSW (250°)17.3 mph26.5 mphMostly Cloudy
1:54 PM37.0 °F19.9 °F50 %29.81 in10.0 miWSW (250°)18.4 mph27.6 mphMostly Cloudy
2:54 PM37.0 °F21.0 °F52 %29.82 in10.0 miWSW (240°)16.1 mphMostly Cloudy
3:54 PM36.0 °F21.0 °F55 %29.83 in10.0 miWSW (240°)18.4 mph26.5 mphMostly Cloudy
4:54 PM36.0 °F21.9 °F57 %29.83 in10.0 miSW (230°)12.7 mphMostly Cloudy
5:54 PM36.0 °F21.9 °F57 %29.83 in10.0 miWSW (240°)11.5 mphOvercast
6:54 PM35.1 °F21.9 °F59 %29.84 in10.0 miSW (230°)12.7 mphMostly Cloudy
7:54 PM34.0 °F21.0 °F59 %29.85 in10.0 miSW (230°)11.5 mphPartly Cloudy
8:54 PM33.1 °F21.0 °F61 %29.85 in10.0 miWSW (240°)11.5 mphPartly Cloudy
9:54 PM32.0 °F19.9 °F61 %29.86 in10.0 miSW (230°)12.7 mphScattered Clouds
10:54 PM32.0 °F21.0 °F64 %29.86 in10.0 miSW (230°)12.7 mphOvercast
11:54 PM30.9 °F19.9 °F64 %29.85 in10.0 miSW (230°)11.5 mphMostly Cloudy
Hourly data recorded from KBOS, located miles away from Boston, Massachusetts







STORIES FROM OUR PARTNERS